User: anonymous   Login
Location: Gradaro
(45.0833°N, 10.8833°E)
Time: 22:13:37
(UTC+00:00)
Language:

FENGYUN 1C DEB - Orbit

View from above orbital plane
View from above orbital plane
View from above satellite
View from above satellite

Ground track
Ground track

The orbit data is extracted from the following two-line orbital elements,

1 31451U 99025BUP 21174.91979258  .00000159  00000-0  11276-3 0  9999
2 31451  98.9592 215.1315 0033344 151.4429 332.4244 14.10858843729685
Epoch (UTC): 23 June 2021 22:04:30
Eccentricity: 0.0033344
inclination: 98.9592°
perigee height: 832 km
apogee height: 880 km
right ascension of ascending node: 215.1315°
argument of perigee: 151.4429°
revolutions per day: 14.10858843
mean anomaly at epoch: 332.4244°
orbit number at epoch: 72968

The dashed part of the orbit path shows where the satellite is in the earth's shadow,  

DLR